Agarki, Belarus

11:32 AM +03 on July 20, 2018 (GMT +0300)
Minsk-2 | | Change Station

Elev 768 ft 53.87 °N, 27.53 °E | Updated 32 minutes ago

Overcast
Overcast
68 °F
Feels Like 68 °F
N
11
Wind Variable Wind from NNW

Today
High -- | Low -- °F
--% Chance of Precip.
Yesterday
High -- | Low -- °F
Precip. -- in
Pressure 29.71 in
Visibility 6.2 miles
Clouds Mostly Cloudy 1300 ft
Dew Point 63 °F
Humidity 83%
Rainfall 0.00 in
Snow Depth Not available.
5:04 AM 9:29 PM
First Quarter, 56% visible
METAR UMMS 200800Z 33005MPS 9999 BKN013 20/17 Q1006 R31/CLRD// NOSIG
Pressure 29.71 in
Visibility 6.2 miles
Clouds Mostly Cloudy 1300 ft
Dew Point 63 °F
Humidity 83%
Rainfall 0.00 in
Snow Depth Not available.
5:04 AM 9:29 PM
First Quarter, 56% visible
METAR UMMS 200800Z 33005MPS 9999 BKN013 20/17 Q1006 R31/CLRD// NOSIG

Get Severe Weather Alerts

Thanks for signing up!

Be on the lookout for a verification email in your inbox.

You'll start receiving the daily forecast at 6 AM.

×

10-Day Weather Forecast

×

Almanac

Astronomy

Jul. 20, 2018 Rise Set
Actual Time
Civil Twilight
Nautical Twilight
Astronomical Twilight
Moon
Length of Visible Light
Length of Day
Tomorrow will be .
, % of the Moon is Illuminated

Today's Extremes

Country Highs Country Lows

Community

WunderPhotos

Category 6

Welcome to Category 6. This is the collective home for Weather Underground's featured writeups by Dr. Jeff Masters (right), Bob Henson (left), Chris Burt, and other regular contributors.

Nearby

Air Quality

  Air Quality AQ Index Pollutant
Not available.

Snow Depth

Station Depth Elevation

Earthquake Activity

City Distance Mag. Time & Date
Minimum magnitude displayed is 2.5.

Coastal Water Temperatures

Place Temperature

Stations

Nearby Weather Stations

Station Location Temp. Windchill Dew Point Humidity Wind Precip. Elev Updated Type